Culdrose, United Kingdom

11:17 PM BST on October 21, 2017 (GMT +0100)
Culdrose Navy

Weather History for EGDR - November, 2013

Change the Weather History Date:

Thursday, November 28, 2013

  Actual Average Record
Temperature  
Mean Temperature 48 °F -  
Max Temperature 50 °F 47 °F 57 °F (1999)
Min Temperature 46 °F 40 °F 21 °F (2010)
Degree Days  
Heating Degree Days 17    
Moisture  
Dew Point 46 °F    
Average Humidity 90    
Maximum Humidity 100    
Minimum Humidity 81    
Precipitation  
Precipitation 0.00 in - - ()
Sea Level Pressure  
Sea Level Pressure 30.58 in    
Wind  
Wind Speed 5 mph ()    
Max Wind Speed 7 mph    
Max Gust Speed -    
Visibility 7.3 miles    
Events      
Averages and records for this station are not official NWS values.
T = Trace of Precipitation, MM = Missing Value Source: Averaged Metar Reports

Daily Weather History Graph

Daily Weather History Graph

Search for Another Location

Airport or City:

Trip Planner

Search our weather history database for the weather conditions in past years. The results will help you decide how hot, cold, wet, or windy it might be!

Date:

Astronomy

Nov. 28, 2013 Rise Set
Actual Time 7:54 AM GMT 4:23 PM GMT
Civil Twilight 7:16 AM GMT 5:00 PM GMT
Nautical Twilight 6:36 AM GMT 5:41 PM GMT
Astronomical Twilight 5:57 AM GMT 6:20 PM GMT
Moon 2:14 AM GMT (11/28) 1:50 PM GMT (11/28)
Length of Visible Light 9h 43m
Length of Day
8h 29m
Waning Crescent, 24% of the Moon is Illuminated
Nov 28
Waning Crescent
Dec 3
New
Dec 9
First Quarter
Dec 17
Full
Dec 25
Last Quarter

Hourly Weather History & Observations

Time (GMT) Temp. Windchill Dew Point Humidity Pressure Visibility Wind Dir Wind Speed Gust Speed Precip Events Conditions
12:00 AM 47 °F - 46 °F 95% 30.58 in 12 mi East 5.8 mph - -   Partly Cloudy
12:50 AM 46.4 °F 44.3 °F 46.4 °F 100% 30.57 in 6.2 mi NE 4.6 mph - N/A   Mostly Cloudy
1:50 AM 48.2 °F - 46.4 °F 93% 30.57 in 6.2 mi ENE 5.8 mph - N/A   Mostly Cloudy
2:50 AM 46.4 °F 44.3 °F 46.4 °F 100% 30.57 in 6.2 mi East 4.6 mph - N/A   Overcast
3:00 AM 47 °F - 46 °F 94% 30.58 in 12 mi East 4.6 mph - -   Overcast
3:50 AM 46.4 °F 43.5 °F 46.4 °F 100% 30.54 in 6.2 mi NE 5.8 mph - N/A   Mostly Cloudy
4:50 AM 46.4 °F 42.9 °F 46.4 °F 100% 30.54 in 6.2 mi ENE 6.9 mph - N/A   Mostly Cloudy
5:50 AM 46.4 °F 42.9 °F 46.4 °F 100% 30.57 in 6.2 mi NE 6.9 mph - N/A   Mostly Cloudy
6:00 AM 47 °F - 46 °F 92% 30.58 in 12 mi NE 6.9 mph - -   Mostly Cloudy
6:50 AM 48.2 °F - 44.6 °F 87% 30.57 in 6.2 mi NE 6.9 mph - N/A   Mostly Cloudy
7:50 AM 48.2 °F - 44.6 °F 87% 30.57 in 6.2 mi ENE 6.9 mph - N/A   Haze
8:50 AM 48.2 °F - 46.4 °F 93% 30.60 in 6.2 mi ENE 6.9 mph - N/A   Haze
9:00 AM 48 °F - 46 °F 88% 30.61 in 11 mi ENE 6.9 mph - -   Haze
9:50 AM 50.0 °F - 44.6 °F 82% 30.60 in 6.2 mi NE 6.9 mph - N/A   Overcast
10:50 AM 50.0 °F - 46.4 °F 87% 30.60 in 6.2 mi ENE 4.6 mph - N/A   Haze
11:50 AM 50.0 °F - 46.4 °F 87% 30.60 in 6.2 mi East 6.9 mph - N/A   Haze
12:00 PM 50 °F - 47 °F 84% 30.60 in 10 mi East 6.9 mph - -   Haze
12:50 PM 50.0 °F - 46.4 °F 87% 30.57 in 6.2 mi ENE 6.9 mph - N/A   Haze
1:50 PM 50.0 °F - 46.4 °F 87% 30.57 in 6.2 mi ENE 6.9 mph - N/A   Haze
2:50 PM 50.0 °F - 46.4 °F 87% 30.57 in 6.2 mi ENE 5.8 mph - N/A   Haze
3:00 PM 50 °F - 46 °F 81% 30.58 in 10 mi ENE 5.8 mph - -   Haze
3:50 PM 50.0 °F - 46.4 °F 87% 30.57 in 6.2 mi ENE 5.8 mph - N/A   Haze
4:50 PM 48.2 °F - 44.6 °F 87% 30.57 in 6.2 mi NE 4.6 mph - N/A   Haze
5:50 PM 48.2 °F - 44.6 °F 87% 30.57 in 6.2 mi NE 6.9 mph - N/A   Haze
6:00 PM 48 °F - 44 °F 81% 30.60 in 10 mi NE 6.9 mph - -   Haze
6:50 PM 48.2 °F - 44.6 °F 87% 30.60 in 6.2 mi NE 6.9 mph - N/A   Haze
7:50 PM 48.2 °F - 44.6 °F 87% 30.60 in 6.2 mi NE 5.8 mph - N/A   Haze
8:50 PM 46.4 °F 44.3 °F 44.6 °F 93% 30.60 in 6.2 mi NNE 4.6 mph - N/A   Haze
9:00 PM 47 °F - 44 °F 86% 30.61 in 9 mi NNE 4.6 mph - -   Haze
9:50 PM 48.2 °F - 44.6 °F 87% 30.60 in 6.2 mi NNE 3.5 mph - N/A   Haze
10:50 PM 46.4 °F 43.5 °F 44.6 °F 93% 30.60 in 6.2 mi NNE 5.8 mph - N/A   Haze
11:50 PM 46.4 °F 42.9 °F 42.8 °F 87% 30.60 in 6.2 mi ENE 6.9 mph - N/A   Overcast